sat.trackr.live / text

‹ back to catalog

STARLINK-31269

NORAD 58844 · 2024-017U

PAYLOAD ACTIVE UNKNOWN

§ Identity

Operator
Country
US
Launch date
2024-01-24
Launch site
AFWTR
Launch vehicle
Mass (kg)
RCS (m²)

Purposes: comms

External: N2YO · Heavens-Above · Gunter

§ Orbital elements

Epoch: 2026-09-20T06:52:16.224960Z

Period
93.85 min
Inclination
53.1562°
Eccentricity
0.0001019
Mean motion
15.34374096 rev/d
Perigee alt
462.1 km
Apogee alt
463.5 km
Semi-major
6,840.9 km
B*
-7.4030e-6
RAAN
108.3733°
Arg perigee
71.3592°
Mean anomaly
288.7521°
Rev number
14,859

§ Raw data

STARLINK-312691 58844U 24017U   26263.28629890 -.00000626  00000+0 -74030-5 0  99902 58844  53.1562 108.3733 0001019  71.3592 288.7521 15.34374096148598

JSON: /api/v1/satellites/58844 · /tle

For live sub-satellite position, see the globe view (requires WebGL).

§ Visibility from observer

Set your observer location to see the next 7 days of passes ≥ 10°. The values pass through the URL so the page stays shareable.

No JS? Fill the form by hand. The geolocation button needs JavaScript.